Location: Unspecified
(49.8670°N, 0.0000°E)
Time: 20:48:27
(UTC+00:00)

Vanguard 1 - Pass Details

Date: 22 June 2019
Orbit: 655 x 3829 km, 34.2° (Epoch: 20 August)

Event Time Altitude Azimuth Distance (km) Brightness Sun altitude
Rises 23:03:46 0° 180° (S) 7,935 - -15.6°
Reaches altitude 10° 23:15:38 10° 155° (SSE) 6,535 - -16.0°
Exits shadow 23:19:47 12° 144° (SE) 6,166 13.6 -16.1°
Maximum altitude 23:21:07 12° 140° (SE) 6,070 13.6 -16.1°
Drops below altitude 10° 23:26:05 10° 124° (ESE) 5,849 13.6 -16.3°
Sets 23:34:31 0° 96° (E) 6,080 14.0 -16.4°
